Time,TemperatureF,DewpointF,PressureIn,WindDirection,WindDirectionDegrees,WindSpeedMPH,WindSpeedGustMPH,Humidity,HourlyPrecipIn,Conditions,Clouds,dailyrainin,SoftwareType,DateUTC
2013-03-08 00:07:00,34.3,30.0,25.46,NNW,345,1.0,-999.0,84,-99.99,,,0.00,weatherlink.com 1.10,2013-03-08 05:07:00,
2013-03-08 00:22:00,34.2,30.0,25.45,NNW,342,0.0,-999.0,84,-99.99,,,0.00,weatherlink.com 1.10,2013-03-08 05:22:00,
2013-03-08 00:37:00,33.9,29.0,25.45,North,355,6.0,-999.0,83,-99.99,,,0.00,weatherlink.com 1.10,2013-03-08 05:37:00,
2013-03-08 00:52:00,33.7,29.0,25.44,WNW,292,1.0,-999.0,84,-99.99,,,0.00,weatherlink.com 1.10,2013-03-08 05:52:00,
2013-03-08 01:07:00,33.4,29.0,25.45,NNE,22,1.0,-999.0,83,-99.99,,,0.00,weatherlink.com 1.10,2013-03-08 06:07:00,
2013-03-08 01:22:00,32.9,28.0,25.43,North,360,0.0,-999.0,83,-99.99,,,0.00,weatherlink.com 1.10,2013-03-08 06:22:00,
2013-03-08 01:37:00,32.8,28.0,25.42,NNE,17,0.0,-999.0,83,-99.99,,,0.00,weatherlink.com 1.10,2013-03-08 06:37:00,
2013-03-08 01:52:00,32.8,28.0,25.43,NW,309,2.0,-999.0,83,-99.99,,,0.00,weatherlink.com 1.10,2013-03-08 06:52:00,
2013-03-08 02:07:00,32.8,28.0,25.42,NW,317,3.0,-999.0,82,-99.99,,,0.00,weatherlink.com 1.10,2013-03-08 07:07:00,
2013-03-08 02:22:00,32.7,28.0,25.42,NNW,343,0.0,-999.0,83,-99.99,,,0.00,weatherlink.com 1.10,2013-03-08 07:22:00,
2013-03-08 02:37:00,32.6,28.0,25.42,SW,225,2.0,-999.0,84,-99.99,,,0.00,weatherlink.com 1.10,2013-03-08 07:37:00,
2013-03-08 02:52:00,32.3,27.0,25.42,NW,314,5.0,-999.0,82,-99.99,,,0.00,weatherlink.com 1.10,2013-03-08 07:52:00,
2013-03-08 03:07:00,32.3,27.0,25.42,West,276,2.0,-999.0,81,-99.99,,,0.00,weatherlink.com 1.10,2013-03-08 08:07:00,
2013-03-08 03:22:00,32.2,26.0,25.42,NW,315,5.0,-999.0,79,-99.99,,,0.00,weatherlink.com 1.10,2013-03-08 08:22:00,
2013-03-08 03:38:00,32.2,26.0,25.42,NW,325,1.0,-999.0,78,-99.99,,,0.00,weatherlink.com 1.10,2013-03-08 08:38:00,
2013-03-08 03:53:00,32.2,26.0,25.42,NNW,328,0.0,-999.0,78,-99.99,,,0.00,weatherlink.com 1.10,2013-03-08 08:53:00,
2013-03-08 04:08:00,32.2,26.0,25.42,NNW,341,2.0,-999.0,79,-99.99,,,0.00,weatherlink.com 1.10,2013-03-08 09:08:00,
2013-03-08 04:23:00,32.1,26.0,25.43,North,5,4.0,-999.0,77,-99.99,,,0.00,weatherlink.com 1.10,2013-03-08 09:23:00,
2013-03-08 04:38:00,32.0,26.0,25.44,NW,325,1.0,-999.0,77,-99.99,,,0.00,weatherlink.com 1.10,2013-03-08 09:38:00,
2013-03-08 04:53:00,31.8,25.0,25.46,NW,316,2.0,-999.0,77,-99.99,,,0.00,weatherlink.com 1.10,2013-03-08 09:53:00,
2013-03-08 05:08:00,31.5,25.0,25.47,NW,308,0.0,-999.0,77,-99.99,,,0.00,weatherlink.com 1.10,2013-03-08 10:08:00,
2013-03-08 05:23:00,31.0,25.0,25.48,NNW,335,1.0,-999.0,78,-99.99,,,0.00,weatherlink.com 1.10,2013-03-08 10:23:00,
2013-03-08 05:38:00,30.7,25.0,25.46,NNW,335,0.0,-999.0,80,-99.99,,,0.00,weatherlink.com 1.10,2013-03-08 10:38:00,
2013-03-08 05:53:00,30.4,25.0,25.46,NNW,335,0.0,-999.0,81,-99.99,,,0.00,weatherlink.com 1.10,2013-03-08 10:53:00,
2013-03-08 06:08:00,30.3,25.0,25.46,NNW,340,0.0,-999.0,81,-99.99,,,0.00,weatherlink.com 1.10,2013-03-08 11:08:00,
2013-03-08 06:23:00,30.2,25.0,25.45,North,5,8.0,-999.0,82,-99.99,,,0.00,weatherlink.com 1.10,2013-03-08 11:23:00,
2013-03-08 06:38:00,30.4,25.0,25.45,NNE,22,2.0,-999.0,81,-99.99,,,0.00,weatherlink.com 1.10,2013-03-08 11:38:00,
2013-03-08 06:53:00,30.4,25.0,25.46,North,5,1.0,-999.0,81,-99.99,,,0.00,weatherlink.com 1.10,2013-03-08 11:53:00,
2013-03-08 07:08:00,30.0,25.0,25.43,NW,324,1.0,-999.0,81,-99.99,,,0.00,weatherlink.com 1.10,2013-03-08 12:08:00,
2013-03-08 07:23:00,29.8,25.0,25.44,North,349,0.0,-999.0,81,-99.99,,,0.00,weatherlink.com 1.10,2013-03-08 12:23:00,
2013-03-08 07:38:00,29.7,25.0,25.44,North,355,1.0,-999.0,82,-99.99,,,0.00,weatherlink.com 1.10,2013-03-08 12:38:00,
2013-03-08 07:53:00,30.0,25.0,25.43,NNE,30,2.0,-999.0,82,-99.99,,,0.00,weatherlink.com 1.10,2013-03-08 12:53:00,
2013-03-08 08:08:00,30.1,25.0,25.44,NNE,15,3.0,-999.0,80,-99.99,,,0.00,weatherlink.com 1.10,2013-03-08 13:08:00,
2013-03-08 08:23:00,30.5,25.0,25.44,NE,53,0.0,-999.0,81,-99.99,,,0.00,weatherlink.com 1.10,2013-03-08 13:23:00,
2013-03-08 08:38:00,30.9,25.0,25.44,North,360,1.0,-999.0,80,-99.99,,,0.00,weatherlink.com 1.10,2013-03-08 13:38:00,
2013-03-08 08:53:00,31.2,26.0,25.43,NW,309,0.0,-999.0,81,-99.99,,,0.00,weatherlink.com 1.10,2013-03-08 13:53:00,
2013-03-08 09:08:00,31.5,26.0,25.43,NW,313,6.0,-999.0,80,-99.99,,,0.00,weatherlink.com 1.10,2013-03-08 14:08:00,
2013-03-08 09:23:00,31.7,27.0,25.43,North,9,5.0,-999.0,81,-99.99,,,0.00,weatherlink.com 1.10,2013-03-08 14:23:00,
2013-03-08 09:38:00,32.7,28.0,25.44,North,360,9.0,-999.0,81,-99.99,,,0.00,weatherlink.com 1.10,2013-03-08 14:38:00,
2013-03-08 09:53:00,34.4,28.0,25.39,North,360,1.0,-999.0,78,-99.99,,,0.00,weatherlink.com 1.10,2013-03-08 14:53:00,
2013-03-08 10:08:00,33.4,27.0,25.43,North,349,6.0,-999.0,77,-99.99,,,0.00,weatherlink.com 1.10,2013-03-08 15:08:00,
2013-03-08 10:23:00,34.0,28.0,25.40,NE,42,1.0,-999.0,79,-99.99,,,0.00,weatherlink.com 1.10,2013-03-08 15:23:00,
2013-03-08 10:38:00,34.1,28.0,25.40,NW,320,0.0,-999.0,78,-99.99,,,0.00,weatherlink.com 1.10,2013-03-08 15:38:00,
2013-03-08 10:53:00,35.0,28.0,25.40,North,5,0.0,-999.0,76,-99.99,,,0.00,weatherlink.com 1.10,2013-03-08 15:53:00,
2013-03-08 11:08:00,35.7,28.0,25.39,SSW,202,0.0,-999.0,74,-99.99,,,0.00,weatherlink.com 1.10,2013-03-08 16:08:00,
2013-03-08 11:23:00,36.1,28.0,25.39,WNW,286,7.0,-999.0,71,-99.99,,,0.00,weatherlink.com 1.10,2013-03-08 16:23:00,
2013-03-08 11:38:00,35.8,28.0,25.40,NNW,329,1.0,-999.0,72,-99.99,,,0.00,weatherlink.com 1.10,2013-03-08 16:38:00,
2013-03-08 11:53:00,35.6,28.0,25.41,NW,320,4.0,-999.0,73,-99.99,,,0.00,weatherlink.com 1.10,2013-03-08 16:53:00,
2013-03-08 12:08:00,36.5,28.0,25.39,WNW,300,0.0,-999.0,71,-99.99,,,0.00,weatherlink.com 1.10,2013-03-08 17:08:00,
2013-03-08 12:23:00,36.0,28.0,25.40,West,280,7.0,-999.0,72,-99.99,,,0.00,weatherlink.com 1.10,2013-03-08 17:23:00,
2013-03-08 12:38:00,36.1,28.0,25.41,North,9,7.0,-999.0,72,-99.99,,,0.00,weatherlink.com 1.10,2013-03-08 17:38:00,
2013-03-08 12:53:00,36.1,28.0,25.42,WNW,284,3.0,-999.0,73,-99.99,,,0.00,weatherlink.com 1.10,2013-03-08 17:53:00,
2013-03-08 13:08:00,36.3,28.0,25.41,WNW,296,4.0,-999.0,72,-99.99,,,0.00,weatherlink.com 1.10,2013-03-08 18:08:00,
2013-03-08 13:23:00,36.3,28.0,25.42,NNE,26,2.0,-999.0,72,-99.99,,,0.00,weatherlink.com 1.10,2013-03-08 18:23:00,
2013-03-08 13:53:00,36.7,28.0,25.40,NE,38,0.0,-999.0,72,-99.99,,,0.00,weatherlink.com 1.10,2013-03-08 18:53:00,
2013-03-08 14:08:00,36.7,28.0,25.42,North,10,5.0,-999.0,71,-99.99,,,0.00,weatherlink.com 1.10,2013-03-08 19:08:00,
2013-03-08 14:23:00,37.1,28.0,25.42,WNW,293,1.0,-999.0,71,-99.99,,,0.00,weatherlink.com 1.10,2013-03-08 19:23:00,
2013-03-08 14:38:00,37.4,29.0,25.42,NE,51,1.0,-999.0,71,-99.99,,,0.00,weatherlink.com 1.10,2013-03-08 19:38:00,
2013-03-08 14:53:00,37.2,29.0,25.42,NNW,329,2.0,-999.0,71,-99.99,,,0.00,weatherlink.com 1.10,2013-03-08 19:53:00,
2013-03-08 15:08:00,37.1,29.0,25.42,West,269,2.0,-999.0,72,-99.99,,,0.00,weatherlink.com 1.10,2013-03-08 20:08:00,
2013-03-08 15:23:00,36.8,29.0,25.42,NNW,342,4.0,-999.0,73,-99.99,,,0.00,weatherlink.com 1.10,2013-03-08 20:23:00,
2013-03-08 15:38:00,37.0,29.0,25.42,North,355,0.0,-999.0,73,-99.99,,,0.00,weatherlink.com 1.10,2013-03-08 20:38:00,
2013-03-08 15:53:00,37.3,29.0,25.43,WNW,292,0.0,-999.0,72,-99.99,,,0.00,weatherlink.com 1.10,2013-03-08 20:53:00,
2013-03-08 16:08:00,37.3,29.0,25.43,West,268,1.0,-999.0,73,-99.99,,,0.00,weatherlink.com 1.10,2013-03-08 21:08:00,
2013-03-08 16:23:00,37.3,29.0,25.41,NW,311,1.0,-999.0,72,-99.99,,,0.00,weatherlink.com 1.10,2013-03-08 21:23:00,
2013-03-08 16:38:00,37.3,29.0,25.41,NNW,334,3.0,-999.0,73,-99.99,,,0.00,weatherlink.com 1.10,2013-03-08 21:38:00,
2013-03-08 16:53:00,37.4,29.0,25.40,NE,34,0.0,-999.0,73,-99.99,,,0.00,weatherlink.com 1.10,2013-03-08 21:53:00,
2013-03-08 17:08:00,37.4,29.0,25.42,NNE,30,0.0,-999.0,73,-99.99,,,0.00,weatherlink.com 1.10,2013-03-08 22:08:00,
2013-03-08 17:23:00,37.5,30.0,25.45,NNE,33,3.0,-999.0,73,-99.99,,,0.00,weatherlink.com 1.10,2013-03-08 22:23:00,
2013-03-08 17:38:00,37.4,29.0,25.46,NE,40,0.0,-999.0,73,-99.99,,,0.00,weatherlink.com 1.10,2013-03-08 22:38:00,
2013-03-08 17:53:00,37.4,29.0,25.45,NNE,30,0.0,-999.0,73,-99.99,,,0.00,weatherlink.com 1.10,2013-03-08 22:53:00,
2013-03-08 18:08:00,37.2,30.0,25.43,NE,48,1.0,-999.0,74,-99.99,,,0.00,weatherlink.com 1.10,2013-03-08 23:08:00,
2013-03-08 18:23:00,37.0,29.0,25.43,NE,52,1.0,-999.0,74,-99.99,,,0.00,weatherlink.com 1.10,2013-03-08 23:23:00,
2013-03-08 18:38:00,36.8,30.0,25.43,NNE,22,2.0,-999.0,75,-99.99,,,0.00,weatherlink.com 1.10,2013-03-08 23:38:00,
2013-03-08 18:54:00,36.6,29.0,25.43,NNE,19,1.0,-999.0,75,-99.99,,,0.00,weatherlink.com 1.10,2013-03-08 23:54:00,
2013-03-08 19:09:00,36.5,29.0,25.43,East,94,1.0,-999.0,75,-99.99,,,0.00,weatherlink.com 1.10,2013-03-09 00:09:00,
2013-03-08 19:24:00,36.3,29.0,25.43,East,90,4.0,-999.0,76,-99.99,,,0.00,weatherlink.com 1.10,2013-03-09 00:24:00,
2013-03-08 19:39:00,36.1,29.0,25.43,ENE,78,0.0,-999.0,76,-99.99,,,0.00,weatherlink.com 1.10,2013-03-09 00:39:00,
2013-03-08 19:54:00,35.9,29.0,25.43,ENE,68,0.0,-999.0,76,-99.99,,,0.00,weatherlink.com 1.10,2013-03-09 00:54:00,
2013-03-08 20:09:00,35.8,29.0,25.42,ENE,69,3.0,-999.0,77,-99.99,,,0.00,weatherlink.com 1.10,2013-03-09 01:09:00,
2013-03-08 20:24:00,35.6,29.0,25.44,NE,51,2.0,-999.0,77,-99.99,,,0.00,weatherlink.com 1.10,2013-03-09 01:24:00,
2013-03-08 20:39:00,35.5,29.0,25.44,ENE,64,1.0,-999.0,77,-99.99,,,0.00,weatherlink.com 1.10,2013-03-09 01:39:00,
2013-03-08 20:54:00,35.0,28.0,25.43,ENE,61,0.0,-999.0,77,-99.99,,,0.00,weatherlink.com 1.10,2013-03-09 01:54:00,
2013-03-08 21:09:00,34.4,29.0,25.45,ENE,61,0.0,-999.0,79,-99.99,,,0.00,weatherlink.com 1.10,2013-03-09 02:09:00,
2013-03-08 21:24:00,33.6,28.0,25.42,ENE,61,0.0,-999.0,80,-99.99,,,0.00,weatherlink.com 1.10,2013-03-09 02:24:00,
2013-03-08 21:39:00,33.1,28.0,25.43,ENE,61,0.0,-999.0,81,-99.99,,,0.00,weatherlink.com 1.10,2013-03-09 02:39:00,
2013-03-08 21:54:00,32.6,27.0,25.44,ENE,61,0.0,-999.0,81,-99.99,,,0.00,weatherlink.com 1.10,2013-03-09 02:54:00,
2013-03-08 22:09:00,32.1,27.0,25.44,ENE,61,0.0,-999.0,82,-99.99,,,0.00,weatherlink.com 1.10,2013-03-09 03:09:00,
2013-03-08 22:24:00,31.6,27.0,25.43,ENE,61,0.0,-999.0,83,-99.99,,,0.00,weatherlink.com 1.10,2013-03-09 03:24:00,
2013-03-08 22:39:00,31.0,27.0,25.43,ENE,61,0.0,-999.0,84,-99.99,,,0.00,weatherlink.com 1.10,2013-03-09 03:39:00,
2013-03-08 22:54:00,30.5,27.0,25.43,ENE,61,0.0,-999.0,85,-99.99,,,0.00,weatherlink.com 1.10,2013-03-09 03:54:00,
2013-03-08 23:09:00,30.3,26.0,25.44,ENE,61,0.0,-999.0,85,-99.99,,,0.00,weatherlink.com 1.10,2013-03-09 04:09:00,
2013-03-08 23:24:00,29.6,26.0,25.40,ENE,61,0.0,-999.0,86,-99.99,,,0.00,weatherlink.com 1.10,2013-03-09 04:24:00,
2013-03-08 23:39:00,29.0,26.0,25.39,ENE,61,0.0,-999.0,87,-99.99,,,0.00,weatherlink.com 1.10,2013-03-09 04:39:00,
2013-03-08 23:54:00,28.7,26.0,25.39,ENE,61,0.0,-999.0,88,-99.99,,,0.00,weatherlink.com 1.10,2013-03-09 04:54:00,